Terminal Aerodrome Forecast
Issued by NWS Mt. Holly, NJ

Home | Current Version | Previous Version | Text Only | Print | Product List | Glossary On
Versions: 1 2 3 4 5 6 7 8 9 10 11 12 13 14 15 16 17 18 19 20 21 22 23 24 25 26 27 28 29 30 31 32 33 34 35 36 37 38 39 40 41 42 43 44 45 46
000
FTAK31 PANC 241724
TAFABE
TAF
PABE 241724Z 2418/2518 15013KT P6SM -SHRA BKN035 OVC050
     FM242100 16016G22KT P6SM -SHRA BKN050
     FM250400 18012KT P6SM VCSH BKN050
     FM250900 15005KT P6SM BKN050=

USA.gov is the U.S. government's official web portal to all federal, state and local government web resources and services.